Regional Weather Roundup
Issued by NWS

Home | Current Version | Previous Version | Text Only | Print | Product List | Glossary On
Versions: 1 2 3 4 5 6 7 8 9 10 11 12 13 14 15 16 17 18 19 20 21 22 23 24 25 26 27 28 29 30 31 32 33 34 35 36 37 38 39 40 41 42 43 44 45 46 47 48 49
000
ASUS45 KBOU 281007
RWRCO

WEATHER ROUNDUP FOR COLORADO
NATIONAL WEATHER SERVICE DENVER/BOULDER CO
400 AM MDT MON JUL 28 2014

NOTE: "FAIR" INDICATES FEW OR NO CLOUDS BELOW 12000 FEET WITH NO
SIGNIFICANT WEATHER AND/OR OBSTRUCTIONS TO VISIBILITY.

COZ001>005-013-030-031-281100-
...NORTHWEST COLORADO...

CITY           SKY/WX    TMP DP  RH WIND       PRES   REMARKS
CRAIG          PTCLDY    44  43  96 CALM      30.36R
HAYDEN         PTCLDY    61  43  51 E10       30.37S
MEEKER         CLOUDY    60  47  61 NE3       30.37F
MOUNT WERNER   NOT AVBL
STEAMBOAT SPGS PTCLDY    55  46  71 NW3       30.40S
WALDEN         CLEAR     50  43  76 E6        30.51S
$$

COZ006>008-011-281100-
...WEST CENTRAL VALLEYS...

CITY           SKY/WX    TMP DP  RH WIND       PRES   REMARKS
GRAND JUNCTION MOCLDY    74  50  42 NE3       30.27S
MONTROSE       MOCLDY    68  52  56 CALM      30.37R
EAGLE          PTCLDY    57  48  72 SE3       30.43S
RIFLE          CLOUDY    67  47  48 SE6       30.32S
DELTA          MOCLDY    69  56  62 CALM      30.32R
NUCLA          MOCLDY    66  52  59 SE5       30.42S
$$

COZ017>023-064>068-281100-
...SOUTHWEST COLORADO...

CITY           SKY/WX    TMP DP  RH WIND       PRES   REMARKS
DURANGO        CLOUDY    60  58  92 CALM      30.47S
CORTEZ         CLOUDY    65  58  78 CALM      30.41R
PAGOSA SPRINGS CLOUDY    58  55  91 NE3       30.54S
TELLURIDE      LGT RAIN  57  48  72 CALM      30.59S
WOLF CREEK PAS NOT AVBL
$$

COZ009-010-012-014-032>034-037-058>063-281100-
...CENTRAL COLORADO...

CITY           SKY/WX    TMP DP  RH WIND       PRES   REMARKS
ASPEN          PTCLDY    53  44  71 CALM      30.47F
BUENA VISTA    CLOUDY    56  53  91 CALM      30.55F
COPPER MTN     PTCLDY    54  37  54 S18       30.80S
BERTHOUD PASS  FAIR      45  32  61 W6        30.85R
COTTONWOOD PAS CLOUDY    54  50  87 E3        30.66S
GUNNISON       MOCLDY    57  46  67 NE5       30.52S
KREMMLING      MOCLDY    54  46  76 CALM      30.49R
LEADVILLE      CLOUDY    48  46  93 E3        30.65F
MONARCH PASS   CLOUDY    46  43  87 SW7       30.90S
SALIDA         CLOUDY   N/A N/A N/A CALM      30.60F
SUNLIGHT       MOCLDY    54  43  66 CALM      30.71S
WILKERSON PASS NOT AVBL
$$

COZ069>075-281100-
...SAN LUIS VALLEY/SANGRE DE CRISTO MOUNTAINS...

CITY           SKY/WX    TMP DP  RH WIND       PRES   REMARKS
ALAMOSA        CLOUDY    56  54  93 E9        30.52R
LA VETA PASS   DRZL/FOG  48  46  93 SW7       30.67F VSB 3/4
SAGUACHE       CLOUDY    57  52  82 SE9       30.56R
$$

COZ035-036-038>040-281100-
...NORTHERN COLORADO FRONT RANGE...

CITY           SKY/WX    TMP DP  RH WIND       PRES   REMARKS
DENVER INTL AP PTCLDY    63  53  70 S9        30.33F
DMNS CITY PARK   N/A     63  54  72 W1        30.33S
AURORA         PTCLDY    64  53  68 S13       30.35F
FRONT RANGE AP NOT AVBL
ERIE MUNI ARPT PTCLDY    58  56  90 NW6       30.32S
BOULDER MUN AP PTCLDY    61  59  94 NW3       30.34S
CENTENNIAL     PTCLDY    63  52  67 S8        30.36F
BROOMFIELD     PTCLDY    64  54  68 NW8       30.35S
FORT COLLINS   CLEAR     61  57  88 N8        30.35S
LONGMONT       CLEAR     64  60  85 NW3       30.34S
$$

COZ041-046-047-076>085-087-088-281100-
...PIKES PEAK/PALMER DIVIDE AND SOUTHERN FOOTHILLS...

CITY           SKY/WX    TMP DP  RH WIND       PRES   REMARKS
COLO. SPRINGS  CLOUDY    59  56  89 E5        30.43F
A. F. ACADEMY  MOCLDY    57  56  99 VRB2      30.45S
ELLICOTT       CLOUDY    59  58  96 W3        30.42F
FALCON         CLOUDY    56  55  97 SW3       30.47F
FORT CARSON    CLOUDY    59  58  97 S7        30.40F
LIMON          CLOUDY    58  56  93 SE3       30.39S
MONUMENT HILL  MOCLDY    54  52  94 SW7       30.45S
TRINIDAD       LGT RAIN  62  60  93 SE7       30.41F
$$

COZ042>045-048>051-090-091-281100-
...NORTHEAST COLORADO...

CITY           SKY/WX    TMP DP  RH WIND       PRES   REMARKS
GREELEY ARPT   PTCLDY    63  55  77 E5        30.32F
AKRON          PTCLDY    60  48  64 SE6       30.35S
BURLINGTON     CLOUDY    63  54  72 SE7       30.33F
WRAY             N/A     63  49  61 CALM      30.32S
STERLING       PTCLDY    63  54  72 CALM      30.30F
HOLYOKE        PTCLDY    59  54  82 E5        30.32F
FORT MORGAN    PTCLDY    62  58  86 NE5       30.34S
$$

COZ086-089-092>099-281100-
...SOUTHEAST COLORADO...

CITY           SKY/WX    TMP DP  RH WIND       PRES   REMARKS
PUEBLO         CLOUDY    65  64  97 CALM      30.35F
LA JUNTA       RAIN      67  65  93 S7        30.36R
LAMAR          CLOUDY    69  63  81 W8        30.32R
SPRINGFIELD      N/A     61  60  97 SW13G22   30.39S
$$


USA.gov is the U.S. government's official web portal to all federal, state and local government web resources and services.